Other Public Products
Issued by NWS Charleston, SC

Current Version | Previous Version | Graphics & Text | Print | Product List | Glossary On
Versions: 1 2 3 4 5 6 7 8 9 10 11 12 13 14 15 16 17 18 19 20 21 22 23 24 25 26 27 28 29 30 31 32 33 34 35 36 37 38 39 40 41 42 43 44 45 46 47 48 49 50
613
FPUS82 KCHS 251027
OPUCHS

TEST...KCHS/KSAV Gateway Observations...TEST
National Weather Service Charleston SC
600 AM EDT FRI MAY 25 2018

NOTE: "fair" indicates few or no clouds below 12,000 feet with no
significant weather and/or obstructions to visibility.

SCZ050-WAZ558-NCZ071-TXZ119-213-PAZ071-DCZ001-FLZ074-172-MI076-
NYZ176-178-MAZ016-IL014-TNZ027-NJZ106-GAZ044-MD014-251100-

...Gateway Observations for Charleston International...

CITY           SKY/WX    TMP DP  RH WIND       PRES   REMARKS
Chas Airport   FAIR      72  71  97 CALM      30.08R
Seattle        MOCLDY    54  47  77 N6        30.04S
Charlotte      MOCLDY    71  69  93 SE6       30.11F
Dallas DFW     PTCLDY    75  69  81 S9        29.95S
Dallas Love    PTCLDY    77  69  76 S7        29.96S
Philladelphia  FAIR      62  58  86 SW3       30.09R
Wash National  FAIR      63  58  83 SW6       30.11R
Baltimore      FAIR      60  57  89 W3        30.10R
Miami          CLOUDY    78  75  90 E12       29.98F
Detroit        MOCLDY    60  49  66 CALM      30.02F
Newark         FAIR      62  53  72 SW6       30.06R
Laguardia      FAIR      68  51  54 SW7       30.05R
J F K          FAIR      61  57  87 SW9       30.07R
Boston Logan   FAIR      57  48  72 SW9       29.96S
Ft. Lauderdale PTCLDY    77  75  94 SE15G22   29.97F
Chicago O`Hare FAIR      68  51  54 S6        29.96F
Chicago Midway FAIR      68  52  56 S6        29.96F
Houston Bush   FAIR      71  71 100 CALM      29.97S
Houston Hobby  FAIR      73  73 100 CALM      29.96F
Nashville      MOCLDY    67  64  90 S3        30.01F
Atlanta        CLOUDY    71  67  87 E8        30.06R

$$

GAZ044-118-TXZ119-213-NCZ071-DCZ001-MDZ014-506-PAZ021-071-NJZ106-
NYZ176-178-MAZ106-OHZ011-021-055-MIZ076-KYZ091-ILZ014-INZ047-
MNZ060-ONZ431-251100-

...Gateway Observations for Savannah International...

CITY           SKY/WX    TMP DP  RH WIND       PRES   REMARKS
Savannah Arpt  MOCLDY    73  72  96 N3        30.06S
Atlanta        CLOUDY    71  67  87 E8        30.06R
Charlotte      MOCLDY    71  69  93 SE6       30.11F
Dallas DFW     PTCLDY    75  69  81 S9        29.95S
Houston Bush   FAIR      71  71 100 CALM      29.97S
Wash National  FAIR      63  58  83 SW6       30.11R
Wash Dulles    FAIR      59  56  89 CALM      30.10R
Baltimore      FAIR      60  57  89 W3        30.10R
Philadelphia   FAIR      62  58  86 SW3       30.09R
Newark         FAIR      62  53  72 SW6       30.06R
Laguardia      FAIR      68  51  54 SW7       30.05R
J F K          FAIR      61  57  87 SW9       30.07R
Boston         FAIR      57  48  72 SW9       29.96S
Pittsburg      MOCLDY    56  52  86 CALM      30.06F
Akron          FAIR      58  51  78 CALM      30.06F
Cleveland      FAIR      55  50  83 CALM      30.05F
Cincinnati     FAIR      59  56  89 CALM      30.03F
Columbus       FAIR      57  57  99 MISG      30.05R
Detroit        MOCLDY    60  49  66 CALM      30.02F
Chicago O`Hare FAIR      68  51  54 S6        29.96F
Minneapolis    CLOUDY    67  64  90 SE14G25   29.82F
Indianapolis   FAIR      62  54  74 CALM      30.02F
Toronto Canada PTCLDY    63  46  55 W9        29.97S

$$




USA.gov is the U.S. government's official web portal to all federal, state and local government web resources and services.